This demonstration page uses our WeatherBlox Daily Observations layout. Learn more.

36.17497, -115.13722

Hourly Observations for September 18, 2020

Temp ( °F °C ) Dew Point ( °F °C ) Humidity (%) Winds ( mph kmh ) Pressure ( in mb ) Visibility ( mi km ) Precip ( " mm )
12:53 am 00:53 Clear 81 27.2 34 1.1 18 18 WNW 3 6 29.88 1012 10 16.0934 0 0
1:53 am 01:53 Clear 80 26.7 35 1.7 20 20 NW 5 7 29.88 1012 10 16.0934 0 0
2:53 am 02:53 Clear 78 25.6 34 1.1 20 20 WNW 5 7 29.87 1012 10 16.0934 0 0
3:53 am 03:53 Clear 77 25 32 0 19 19 NW 3 6 29.87 1012 10 16.0934 0 0
4:53 am 04:53 Clear 77 25 31 -0.6 18 18 NNW 7 11 29.88 1012 10 16.0934 0 0
5:53 am 05:53 Clear 76 24.4 30 -1.1 18 18 NW 5 7 29.89 1012 10 16.0934 0 0
6:53 am 06:53 Sunny 76 24.4 32 0 20 20 NW 3 6 29.91 1013 10 16.0934 0 0
7:53 am 07:53 Sunny 79 26.1 32 0 18 18 NW 5 7 29.91 1013 10 16.0934 0 0
8:53 am 08:53 Sunny 84 28.9 30 -1.1 14 14 Calm 29.92 1013 10 16.0934 0 0
9:53 am 09:53 Sunny 86 30 29 -1.7 13 13 Calm 29.93 1013 10 16.0934 0 0
10:53 am 10:53 Sunny 90 32.2 28 -2.2 11 11 Calm 29.92 1013 10 16.0934 0 0
11:53 am 11:53 Sunny 94 34.4 28 -2.2 9 9 E 6 9 29.9 1013 10 16.0934 0 0
12:53 pm 12:53 Sunny 97 36.1 29 -1.7 9 9 Calm 29.87 1012 10 16.0934 0 0
1:53 pm 13:53 Sunny 101 38.3 29 -1.7 8 8 VRB 5 7 29.83 1010 10 16.0934 0 0
2:53 pm 14:53 Sunny 104 40 29 -1.7 7 7 SSW 21 33 29.8 1009 10 16.0934 0 0
3:53 pm 15:53 Sunny 101 38.3 28 -2.2 8 8 SW 13 20 29.78 1009 10 16.0934 0 0
4:53 pm 16:53 Sunny 100 37.8 29 -1.7 8 8 WSW 15 24 29.77 1008 10 16.0934 0 0
5:53 pm 17:53 Sunny 100 37.8 30 -1.1 8 8 WSW 15 24 29.77 1008 10 16.0934 0 0
6:53 pm 18:53 Clear 98 36.7 30 -1.1 9 9 WSW 8 13 29.77 1008 10 16.0934 0 0
7:53 pm 19:53 Clear 95 35 31 -0.6 10 10 S 3 6 29.79 1009 10 16.0934 0 0
8:53 pm 20:53 Clear 94 34.4 31 -0.6 11 11 W 12 19 29.8 1009 10 16.0934 0 0
9:53 pm 21:53 Clear 90 32.2 33 0.6 13 13 S 7 11 29.81 1010 10 16.0934 0 0
10:53 pm 22:53 Clear 91 32.8 32 0 12 12 SW 9 15 29.8 1009 10 16.0934 0 0
11:53 pm 23:53 Clear 88 31.1 32 0 13 13 SSE 7 11 29.81 1010 10 16.0934 0 0

Powered by AerisWeather